Simultaneous Nadir Overpasses (SNOs) Predictions

Prediction of SNOs between AQUA and METOP-B Satellite Orbit:

Table of predicted SNOs for the next 14.0 days since TLE Epoch: 3/8/2019
Index Date (AQUA) Time (AQUA) Lat,Lon (AQUA) SZA (AQUA ) Date (METOP-B) Time (METOP-B) Lat,Lon (METOP-B) SZA (METOP-B ) Distance(km) Time Diff (sec)
1 03/10/2019 19:01:17 73.84,-111.05 77.91 03/10/2019 19:00:29 73.86,-111.03 77.94 2.52 48
2 03/10/2019 19:50:45 -73.92, 56.40 102.01 03/10/2019 19:51:09 -73.94, 56.48 102.01 3.02 24
3 03/13/2019 14:35:33 73.85, -44.64 76.81 03/13/2019 14:34:52 73.86, -44.63 76.82 0.90 41
4 03/13/2019 15:25:01 -73.93, 122.81 103.12 03/13/2019 15:25:32 -73.93, 122.89 103.12 2.34 31
5 03/16/2019 10:09:50 73.87, 21.75 75.71 03/16/2019 10:09:16 73.85, 21.76 75.70 1.78 34
6 03/16/2019 10:59:18 -73.95,-170.79 104.22 03/16/2019 10:59:56 -73.93,-170.72 104.25 3.18 38
7 03/19/2019 05:44:06 73.84, 88.25 74.56 03/19/2019 05:43:40 73.84, 88.15 74.57 2.91 26
8 03/19/2019 06:33:34 -73.92,-104.30 105.37 03/19/2019 06:34:20 -73.93,-104.32 105.37 0.81 46
9 03/22/2019 00:28:43 -73.23, -11.67 107.20 03/22/2019 00:27:36 -73.19, -14.27 107.12 83.93 67
10 03/22/2019 01:18:22 73.87, 154.61 73.48 03/22/2019 01:18:02 73.88, 154.66 73.49 1.94 20
11 03/22/2019 02:07:49 -73.90, -37.82 106.51 03/22/2019 02:08:43 -73.92, -37.94 106.50 3.82 54




NCC Satellite Simultaneous Nadir Overpasses (SNOs) Prediction Service
